| time (UTC) | temp F | wind direction | speed knots | gust knots | rain 1hr in | rain 24hr in | rain mn in | humidity % | barometer mb |
| 20260504050713 | 48 | 196 | 0.9 | 2.6 | 0.00 | 0.06 | 0.06 | 60 | |
| 20260504050213 | 47 | 209 | 2.6 | 3.5 | 0.00 | 0.06 | 0.06 | 60 | |
| 20260504045712 | 47 | 336 | 4.3 | 4.3 | 0.00 | 0.06 | 0.06 | 60 | |
| 20260504045212 | 47 | 256 | 4.3 | 7.0 | 0.00 | 0.06 | 0.06 | 61 | |
| 20260504044711 | 47 | 185 | 3.5 | 7.8 | 0.00 | 0.06 | 0.06 | 60 | |
| 20260504044210 | 47 | 291 | 5.2 | 7.0 | 0.00 | 0.06 | 0.06 | 61 | |
| 20260504043709 | 47 | 287 | 5.2 | 6.1 | 0.00 | 0.06 | 0.06 | 61 | |
| 20260504043209 | 46 | 315 | 3.5 | 6.1 | 0.00 | 0.06 | 0.06 | 61 | |
| 20260504042708 | 46 | 256 | 0.9 | 5.2 | 0.00 | 0.06 | 0.06 | 62 | |
| 20260504042207 | 46 | 0 | 4.3 | 2.6 | 0.00 | 0.06 | 0.06 | 62 | |
| 20260504041707 | 46 | 285 | 7.8 | 9.6 | 0.00 | 0.06 | 0.06 | 62 | |
| 20260504041206 | 46 | 257 | 3.5 | 6.1 | 0.00 | 0.06 | 0.06 | 62 | |
| 20260504040705 | 45 | 265 | 4.3 | 3.5 | 0.00 | 0.06 | 0.06 | 63 | |
| 20260504040204 | 45 | 263 | 3.5 | 3.5 | 0.00 | 0.06 | 0.06 | 63 | |
| 20260504035704 | 45 | 270 | 3.5 | 8.7 | 0.00 | 0.06 | 0.06 | 63 | |
| 20260504035203 | 46 | 25 | 1.7 | 4.3 | 0.00 | 0.06 | 0.06 | 63 | |
| 20260504034703 | 46 | 240 | 4.3 | 7.0 | 0.00 | 0.06 | 0.06 | 62 | |
| 20260504034202 | 46 | 286 | 1.7 | 5.2 | 0.00 | 0.06 | 0.06 | 62 | |
| 20260504033701 | 46 | 145 | 3.5 | 6.1 | 0.00 | 0.06 | 0.06 | 61 | |
| 20260504033200 | 46 | 180 | 4.3 | 3.5 | 0.00 | 0.06 | 0.06 | 61 | |
| 20260504032700 | 46 | 219 | 2.6 | 7.0 | 0.00 | 0.06 | 0.06 | 62 | |
| 20260504032159 | 46 | 274 | 2.6 | 5.2 | 0.00 | 0.06 | 0.06 | 62 | |
| 20260504031659 | 45 | 324 | 4.3 | 6.1 | 0.00 | 0.06 | 0.06 | 62 | |
| 20260504031158 | 45 | 234 | 4.3 | 7.8 | 0.00 | 0.06 | 0.06 | 62 | |
| 20260504030657 | 45 | 135 | 2.6 | 2.6 | 0.00 | 0.06 | 0.06 | 63 | |
| 20260504030156 | 45 | 249 | 2.6 | 4.3 | 0.00 | 0.06 | 0.06 | 62 | |
| 20260504025656 | 45 | 289 | 4.3 | 4.3 | 0.00 | 0.06 | 0.06 | 62 | |
| 20260504025155 | 45 | 261 | 2.6 | 4.3 | 0.00 | 0.06 | 0.06 | 62 | |
| 20260504024654 | 45 | 54 | 2.6 | 7.8 | 0.00 | 0.06 | 0.06 | 62 | |
| 20260504024154 | 45 | 240 | 3.5 | 3.5 | 0.00 | 0.06 | 0.06 | 61 | |
| 20260504023653 | 46 | 256 | 3.5 | 5.2 | 0.00 | 0.06 | 0.06 | 61 | |
| 20260504023152 | 45 | 275 | 2.6 | 5.2 | 0.00 | 0.06 | 0.06 | 61 | |
| 20260504022652 | 46 | 304 | 5.2 | 6.1 | 0.00 | 0.06 | 0.06 | 60 | |
| 20260504022151 | 45 | 250 | 2.6 | 4.3 | 0.00 | 0.06 | 0.06 | 61 | |
| 20260504021651 | 45 | 245 | 2.6 | 3.5 | 0.00 | 0.06 | 0.06 | 60 | |
| 20260504021150 | 46 | 288 | 7.0 | 6.1 | 0.00 | 0.06 | 0.06 | 59 | |
| 20260504020649 | 46 | 256 | 4.3 | 4.3 | 0.06 | 0.06 | 0.06 | 59 | |
| 20260504020148 | 46 | 337 | 2.6 | 4.3 | 0.06 | 0.06 | 0.06 | 59 | |
| 20260504015648 | 46 | 272 | 1.7 | 2.6 | 0.06 | 0.06 | 0.06 | 59 | |
| 20260504015147 | 46 | 332 | 2.6 | 2.6 | 0.06 | 0.06 | 0.06 | 59 | |
| 20260504014646 | 46 | 229 | 4.3 | 6.1 | 0.06 | 0.06 | 0.06 | 59 | |
| 20260504014146 | 46 | 237 | 2.6 | 4.3 | 0.06 | 0.06 | 0.06 | 58 | |
| 20260504013645 | 46 | 314 | 2.6 | 1.7 | 0.06 | 0.06 | 0.06 | 59 | |
| 20260504013144 | 46 | 314 | 2.6 | 1.7 | 0.06 | 0.06 | 0.06 | 59 | |
| 20260504012644 | 46 | 314 | 2.6 | 1.7 | 0.06 | 0.06 | 0.06 | 59 | |
| 20260504012143 | 46 | 259 | 1.7 | 1.7 | 0.06 | 0.06 | 0.06 | 59 | |
| 20260504011642 | 46 | 258 | 2.6 | 3.5 | 0.06 | 0.06 | 0.06 | 58 | |
| 20260504011142 | 46 | 97 | 0.9 | 2.6 | 0.06 | 0.06 | 0.06 | 58 | |
| 20260504010641 | 41 | 257 | 2.6 | 6.1 | 0.00 | 0.00 | 0.00 | 86 | |
| 20260504010140 | 41 | 257 | 2.6 | 6.1 | 0.00 | 0.00 | 0.00 | 86 | |
| 20260504005639 | 41 | 257 | 2.6 | 6.1 | 0.00 | 0.00 | 0.00 | 86 | |
| 20260504005138 | 41 | 257 | 2.6 | 6.1 | 0.00 | 0.00 | 0.00 | 86 | |
| 20260504004638 | 41 | 257 | 2.6 | 6.1 | 0.00 | 0.00 | 0.00 | 86 | |
| 20260504004137 | 41 | 257 | 2.6 | 6.1 | 0.00 | 0.00 | 0.00 | 86 | |
| 20260504003636 | 41 | 257 | 2.6 | 6.1 | 0.00 | 0.00 | 0.00 | 86 | |
| 20260504003136 | 41 | 257 | 2.6 | 6.1 | 0.00 | 0.00 | 0.00 | 86 | |
| 20260504002635 | 41 | 257 | 2.6 | 6.1 | 0.00 | 0.00 | 0.00 | 86 | |
| 20260504002134 | 41 | 257 | 2.6 | 6.1 | 0.00 | 0.00 | 0.00 | 86 | |
| 20260504001634 | 41 | 257 | 2.6 | 6.1 | 0.00 | 0.00 | 0.00 | 86 | |
| 20260504001133 | 41 | 257 | 2.6 | 6.1 | 0.00 | 0.00 | 0.00 | 86 | |
| 20260504000632 | 41 | 257 | 2.6 | 6.1 | 0.00 | 0.00 | 0.00 | 86 | |
| 20260504000132 | 41 | 257 | 2.6 | 6.1 | 0.00 | 0.00 | 0.00 | 86 | |
| 20260503235631 | 41 | 257 | 2.6 | 6.1 | 0.00 | 0.00 | 0.00 | 86 | |
| 20260503235130 | 41 | 257 | 2.6 | 6.1 | 0.00 | 0.00 | 0.00 | 86 | |
| 20260503234629 | 41 | 257 | 2.6 | 6.1 | 0.00 | 0.00 | 0.00 | 86 | |
| 20260503234128 | 41 | 257 | 2.6 | 6.1 | 0.00 | 0.00 | 0.00 | 86 | |
| 20260503233628 | 41 | 257 | 2.6 | 6.1 | 0.00 | 0.00 | 0.00 | 86 | |
| 20260503233127 | 41 | 257 | 2.6 | 6.1 | 0.00 | 0.00 | 0.00 | 86 | |
| 20260503232626 | 41 | 257 | 2.6 | 6.1 | 0.00 | 0.00 | 0.00 | 86 | |
| 20260503232126 | 41 | 257 | 2.6 | 6.1 | 0.00 | 0.00 | 0.00 | 86 | |
| 20260503231625 | 41 | 257 | 2.6 | 6.1 | 0.00 | 0.00 | 0.00 | 86 | |
| 20260503231124 | 41 | 257 | 2.6 | 6.1 | 0.00 | 0.00 | 0.00 | 86 | |
| 20260503230623 | 41 | 257 | 2.6 | 6.1 | 0.00 | 0.00 | 0.00 | 86 | |
| 20260503230122 | 41 | 257 | 2.6 | 6.1 | 0.00 | 0.00 | 0.00 | 86 | |
| 20260503225622 | 41 | 257 | 2.6 | 6.1 | 0.00 | 0.00 | 0.00 | 86 | |
| 20260503225121 | 41 | 257 | 2.6 | 6.1 | 0.00 | 0.00 | 0.00 | 86 | |
| 20260503224620 | 41 | 257 | 2.6 | 6.1 | 0.00 | 0.00 | 0.00 | 86 | |
| 20260503224114 | 41 | 257 | 2.6 | 6.1 | 0.00 | 0.00 | 0.00 | 86 | |
| 20260503223614 | 41 | 257 | 2.6 | 6.1 | 0.00 | 0.00 | 0.00 | 86 | |
| 20260503223113 | 41 | 257 | 2.6 | 6.1 | 0.00 | 0.00 | 0.00 | 86 | |
| 20260503222612 | 41 | 257 | 2.6 | 6.1 | 0.00 | 0.00 | 0.00 | 86 | |
| 20260503222112 | 41 | 257 | 2.6 | 6.1 | 0.00 | 0.00 | 0.00 | 86 | |
| 20260503221611 | 41 | 257 | 2.6 | 6.1 | 0.00 | 0.00 | 0.00 | 86 | |
| 20260503221110 | 41 | 257 | 2.6 | 6.1 | 0.00 | 0.00 | 0.00 | 86 | |
| 20260503220609 | 41 | 257 | 2.6 | 6.1 | 0.00 | 0.00 | 0.00 | 86 | |
| 20260503220109 | 41 | 257 | 2.6 | 6.1 | 0.00 | 0.00 | 0.00 | 86 | |
| 20260503215608 | 41 | 257 | 2.6 | 6.1 | 0.00 | 0.00 | 0.00 | 86 | |
| 20260503215107 | 41 | 257 | 2.6 | 6.1 | 0.00 | 0.00 | 0.00 | 86 | |
| 20260503214606 | 41 | 257 | 2.6 | 6.1 | 0.00 | 0.00 | 0.00 | 86 | |
| 20260503214106 | 41 | 257 | 2.6 | 6.1 | 0.00 | 0.00 | 0.00 | 86 | |
| 20260503213605 | 41 | 257 | 2.6 | 6.1 | 0.00 | 0.00 | 0.00 | 86 | |
| 20260503213104 | 41 | 257 | 2.6 | 6.1 | 0.00 | 0.00 | 0.00 | 86 | |
| 20260503212604 | 41 | 257 | 2.6 | 6.1 | 0.00 | 0.00 | 0.00 | 86 | |
| 20260503212102 | 41 | 257 | 2.6 | 6.1 | 0.00 | 0.00 | 0.00 | 86 | |
| 20260503211602 | 41 | 257 | 2.6 | 6.1 | 0.00 | 0.00 | 0.00 | 86 | |
| 20260503211101 | 41 | 257 | 2.6 | 6.1 | 0.00 | 0.00 | 0.00 | 86 | |
| 20260503210600 | 41 | 257 | 2.6 | 6.1 | 0.00 | 0.00 | 0.00 | 86 | |
| 20260503210059 | 41 | 257 | 2.6 | 6.1 | 0.00 | 0.00 | 0.00 | 86 | |
| 20260503205559 | 41 | 257 | 2.6 | 6.1 | 0.00 | 0.00 | 0.00 | 86 | |
| 20260503205058 | 41 | 257 | 2.6 | 6.1 | 0.00 | 0.00 | 0.00 | 86 | |
| 20260503204557 | 41 | 257 | 2.6 | 6.1 | 0.00 | 0.00 | 0.00 | 86 | |
| 20260503204057 | 41 | 257 | 2.6 | 6.1 | 0.00 | 0.00 | 0.00 | 86 | |
| 20260503203556 | 41 | 257 | 2.6 | 6.1 | 0.00 | 0.00 | 0.00 | 86 | |
| 20260503203055 | 41 | 257 | 2.6 | 6.1 | 0.00 | 0.00 | 0.00 | 86 | |
| 20260503202554 | 41 | 257 | 2.6 | 6.1 | 0.00 | 0.00 | 0.00 | 86 | |
| 20260503202054 | 41 | 257 | 2.6 | 6.1 | 0.00 | 0.00 | 0.00 | 86 | |
| 20260503201553 | 41 | 257 | 2.6 | 6.1 | 0.00 | 0.00 | 0.00 | 86 | |
| 20260503201052 | 41 | 257 | 2.6 | 6.1 | 0.00 | 0.00 | 0.00 | 86 | |
| 20260503200552 | 41 | 257 | 2.6 | 6.1 | 0.00 | 0.00 | 0.00 | 86 | |
| 20260503200051 | 41 | 257 | 2.6 | 6.1 | 0.00 | 0.00 | 0.00 | 86 | |
| 20260503195550 | 41 | 257 | 2.6 | 6.1 | 0.00 | 0.00 | 0.00 | 86 | |
| 20260503195050 | 41 | 257 | 2.6 | 6.1 | 0.00 | 0.00 | 0.00 | 86 | |
| 20260503194549 | 41 | 257 | 2.6 | 6.1 | 0.00 | 0.00 | 0.00 | 86 | |
| 20260503194048 | 41 | 257 | 2.6 | 6.1 | 0.00 | 0.00 | 0.00 | 86 | |
| 20260503193547 | 41 | 257 | 2.6 | 6.1 | 0.00 | 0.00 | 0.00 | 86 | |
| 20260503193047 | 41 | 257 | 2.6 | 6.1 | 0.00 | 0.00 | 0.00 | 86 | |
| 20260503192546 | 41 | 257 | 2.6 | 6.1 | 0.00 | 0.00 | 0.00 | 86 | |
| 20260503192045 | 41 | 257 | 2.6 | 6.1 | 0.00 | 0.00 | 0.00 | 86 | |
| 20260503191545 | 41 | 257 | 2.6 | 6.1 | 0.00 | 0.00 | 0.00 | 86 | |
| 20260503191044 | 41 | 257 | 2.6 | 6.1 | 0.00 | 0.00 | 0.00 | 86 | |
| 20260503190544 | 41 | 257 | 2.6 | 6.1 | 0.00 | 0.00 | 0.00 | 86 | |
| 20260503190043 | 41 | 257 | 2.6 | 6.1 | 0.00 | 0.00 | 0.00 | 86 | |
| 20260503185542 | 41 | 257 | 2.6 | 6.1 | 0.00 | 0.00 | 0.00 | 86 | |
| 20260503185041 | 41 | 257 | 2.6 | 6.1 | 0.00 | 0.00 | 0.00 | 86 | |
| 20260503184540 | 41 | 257 | 2.6 | 6.1 | 0.00 | 0.00 | 0.00 | 86 | |
| 20260503184040 | 41 | 257 | 2.6 | 6.1 | 0.00 | 0.00 | 0.00 | 86 | |
| 20260503183539 | 41 | 257 | 2.6 | 6.1 | 0.00 | 0.00 | 0.00 | 86 | |
| 20260503183038 | 41 | 257 | 2.6 | 6.1 | 0.00 | 0.00 | 0.00 | 86 | |
| 20260503182536 | 41 | 257 | 2.6 | 6.1 | 0.00 | 0.00 | 0.00 | 86 | |
| 20260503182036 | 41 | 257 | 2.6 | 6.1 | 0.00 | 0.00 | 0.00 | 86 | |
| 20260503181535 | 41 | 257 | 2.6 | 6.1 | 0.00 | 0.00 | 0.00 | 86 | |
| 20260503181034 | 41 | 257 | 2.6 | 6.1 | 0.00 | 0.00 | 0.00 | 86 | |
| 20260503180533 | 41 | 257 | 2.6 | 6.1 | 0.00 | 0.00 | 0.00 | 86 | |
| 20260503180033 | 41 | 257 | 2.6 | 6.1 | 0.00 | 0.00 | 0.00 | 86 | |
| 20260503175532 | 41 | 257 | 2.6 | 6.1 | 0.00 | 0.00 | 0.00 | 86 | |
| 20260503175032 | 41 | 257 | 2.6 | 6.1 | 0.00 | 0.00 | 0.00 | 86 | |
| 20260503174531 | 41 | 257 | 2.6 | 6.1 | 0.00 | 0.00 | 0.00 | 86 | |
| 20260503174030 | 41 | 257 | 2.6 | 6.1 | 0.00 | 0.00 | 0.00 | 86 | |
| 20260503173529 | 41 | 257 | 2.6 | 6.1 | 0.00 | 0.00 | 0.00 | 86 | |
| 20260503173029 | 41 | 257 | 2.6 | 6.1 | 0.00 | 0.00 | 0.00 | 86 | |
| 20260503172528 | 41 | 257 | 2.6 | 6.1 | 0.00 | 0.00 | 0.00 | 86 | |
| 20260503172027 | 41 | 257 | 2.6 | 6.1 | 0.00 | 0.00 | 0.00 | 86 | |
| 20260503171527 | 41 | 257 | 2.6 | 6.1 | 0.00 | 0.00 | 0.00 | 86 | |
| 20260503171026 | 41 | 257 | 2.6 | 6.1 | 0.00 | 0.00 | 0.00 | 86 | |
| 20260503170525 | 41 | 257 | 2.6 | 6.1 | 0.00 | 0.00 | 0.00 | 86 | |
| 20260503151004 | 41 | 257 | 2.6 | 6.1 | 0.00 | 0.00 | 0.00 | 86 | |
| 20260503150503 | 41 | 257 | 2.6 | 6.1 | 0.00 | 0.00 | 0.00 | 86 | |
| 20260503130942 | 41 | 257 | 2.6 | 6.1 | 0.00 | 0.00 | 0.00 | 86 | |
| 20260503130441 | 41 | 257 | 2.6 | 6.1 | 0.00 | 0.00 | 0.00 | 86 | |
| 20260503110418 | 41 | 257 | 2.6 | 6.1 | 0.00 | 0.00 | 0.00 | 86 | |
| 20260503090353 | 41 | 257 | 2.6 | 6.1 | 0.00 | 0.00 | 0.00 | 86 | |
| 20260503081346 | 41 | 257 | 2.6 | 6.1 | 0.00 | 0.00 | 0.00 | 86 | |
| 20260503080845 | 41 | 257 | 2.6 | 6.1 | 0.00 | 0.00 | 0.00 | 86 | |
| 20260503080344 | 41 | 257 | 2.6 | 6.1 | 0.00 | 0.00 | 0.00 | 86 | |
| 20260503072840 | 41 | 257 | 2.6 | 6.1 | 0.00 | 0.00 | 0.00 | 86 | |
| 20260503072339 | 41 | 257 | 2.6 | 6.1 | 0.00 | 0.00 | 0.00 | 86 | |
| 20260503071838 | 41 | 257 | 2.6 | 6.1 | 0.00 | 0.00 | 0.00 | 86 | |
| 20260503071337 | 41 | 257 | 2.6 | 6.1 | 0.00 | 0.00 | 0.00 | 86 | |
| 20260503070837 | 41 | 257 | 2.6 | 6.1 | 0.00 | 0.00 | 0.00 | 86 | |
| 20260503070336 | 41 | 257 | 2.6 | 6.1 | 0.00 | 0.00 | 0.00 | 86 | |
| 20260503060327 | 41 | 257 | 2.6 | 6.1 | 0.00 | 0.00 | 0.00 | 86 | |
| 20260503054825 | 41 | 257 | 2.6 | 6.1 | 0.00 | 0.00 | 0.00 | 86 | |
| 20260503054325 | 41 | 257 | 2.6 | 6.1 | 0.00 | 0.00 | 0.00 | 86 | |
| 20260503053824 | 41 | 257 | 2.6 | 6.1 | 0.00 | 0.00 | 0.00 | 86 | |
| 20260503053323 | 41 | 257 | 2.6 | 6.1 | 0.00 | 0.00 | 0.00 | 86 | |
| 20260503052822 | 41 | 257 | 2.6 | 6.1 | 0.00 | 0.00 | 0.00 | 86 | |
| 20260503052322 | 41 | 257 | 2.6 | 6.1 | 0.00 | 0.00 | 0.00 | 86 | |
| 20260503051821 | 41 | 257 | 2.6 | 6.1 | 0.00 | 0.00 | 0.00 | 86 |